Home   Weather   Telfs   Past weeks

Flag for Austria Past Weather in Telfs, Tyrol, Austria — Yesterday and Last 2 Weeks

Now
41 °F

Passing clouds.


Feels Like: 36 °F
Forecast: 37 / 46 °F
Wind: 8 mph from West

Location: Innsbruck-Flughafen

Current Time: Apr 25, 2017 at 6:34:53 am

Latest Report: Apr 25, 2017 at 5:50 am


Visibility: N/A

Pressure: 29.83 "Hg (27.61 "Hg at 630m altitude)

Humidity: 81%

Dew Point: 36 °F

Location of TelfsLocation

Past Weather in Telfs — Graph

°F

Telfs Temperature Yesterday

Maximum temperature yesterday: 66 °F (at 2:20 pm)
Minimum temperature yesterday: 32 °F (at 4:50 am)
Average temperature yesterday: 50 °F

High & Low Weather Summary for the Past Weeks

 TemperatureHumidityPressure
High73 °F (Apr 10, 1:50 pm)100% (Apr 19, 3:50 am)30.54 "Hg (Apr 19, 3:50 am)
Low25 °F (Apr 21, 4:50 am)27% (Apr 22, 3:50 pm)29.86 "Hg (Apr 17, 5:20 pm)
Average47 °F68%30.12 "Hg
* Reported Apr 10 4:20 am — Apr 25 4:20 am, Telfs, Weather by CustomWeather, © 2017

Note: Actual official high and low records may vary slightly from our data, if they occured in-between our weather recording intervals... More about our weather records

Advertising

Telfs Weather History for the Previous 24 Hours

Scroll right to see more
 ConditionsComfort  
Time TempWeatherWind HumidityBarometerVisibility
4:20 am
Tue, Apr 25
41 °FPassing clouds.6 mph81%29.86 "HgN/A
3:50 am43 °FPassing clouds.9 mph76%29.86 "HgN/A
3:20 am43 °FPassing clouds.6 mph76%29.86 "HgN/A
2:50 am43 °FPassing clouds.5 mph81%29.86 "HgN/A
2:20 am45 °FQuite cool.9 mph76%29.86 "HgN/A
1:50 am46 °FCool.6 mph71%29.86 "HgN/A
1:20 am46 °FCool.5 mph71%29.89 "HgN/A
12:50 am48 °FCool.3 mph62%29.89 "HgN/A
12:20 am48 °FCool.6 mph66%29.89 "HgN/A
11:50 pm
Mon, Apr 24
50 °FCool.6 mph62%29.89 "HgN/A
11:20 pm55 °FRefreshingly cool.9 mph55%29.89 "HgN/A
10:50 pm57 °FClear.6 mph48%29.89 "Hg10 mi
10:20 pm57 °FClear.9 mph48%29.89 "Hg10 mi
9:50 pm57 °FPassing clouds.15 mph48%29.89 "HgN/A
9:20 pm59 °FPassing clouds.13 mph45%29.89 "HgN/A
8:50 pm59 °FPassing clouds.12 mph45%29.89 "HgN/A
8:20 pm59 °FPassing clouds.20 mph45%29.89 "HgN/A
7:50 pm61 °FScattered clouds.17 mph42%29.89 "HgN/A
7:20 pm61 °FScattered clouds.17 mph39%29.89 "HgN/A
6:50 pm63 °FPassing clouds.18 mph37%29.86 "HgN/A
6:20 pm63 °FPassing clouds.17 mph37%29.86 "HgN/A
5:50 pm64 °FScattered clouds.17 mph37%29.86 "HgN/A
5:20 pm64 °FScattered clouds.15 mph37%29.86 "HgN/A
4:50 pm66 °FScattered clouds.17 mph32%29.86 "HgN/A
4:20 pm64 °FScattered clouds.15 mph34%29.89 "HgN/A
3:50 pm66 °FScattered clouds.13 mph32%29.89 "HgN/A
3:20 pm66 °FPassing clouds.14 mph32%29.89 "HgN/A
2:50 pm66 °FPassing clouds.13 mph32%29.92 "HgN/A
2:20 pm66 °FPassing clouds.3 mph35%29.92 "HgN/A
1:50 pm64 °FPassing clouds.5 mph37%29.92 "HgN/A
1:20 pm61 °FPassing clouds.6 mph42%29.95 "HgN/A
12:50 pm59 °FPassing clouds.5 mph45%29.98 "HgN/A
12:20 pm55 °FPassing clouds.2 mph51%29.98 "HgN/A
11:50 am54 °FPassing clouds.1 mph51%30.01 "HgN/A
11:20 am52 °FPassing clouds.2 mph54%30.04 "HgN/A
10:50 am48 °FSunny.2 mph62%30.04 "Hg10 mi
10:20 am46 °FPassing clouds.5 mph66%30.07 "HgN/A
9:50 am45 °FPassing clouds.5 mph66%30.07 "HgN/A
9:20 am41 °FPassing clouds.5 mph70%30.09 "HgN/A
8:50 am39 °FSunny.2 mph81%30.09 "Hg10 mi
8:20 am37 °FPassing clouds.5 mph81%30.12 "HgN/A
7:50 am36 °FSunny.5 mph87%30.12 "Hg10 mi
7:20 am34 °FSunny.1 mph87%30.12 "Hg10 mi
6:50 am34 °FSunny.1 mph87%30.12 "Hg10 mi
6:20 am32 °FSunny.1 mph87%30.12 "Hg10 mi
Weather by CustomWeather, © 2017

See weather overviewHow to use our weather pages